| time (UTC) | temp F | wind direction | speed knots | gust knots | rain 1hr in | rain 24hr in | rain mn in | humidity % | barometer mb |
| 20260506032543 | 62 | 191 | 0.9 | 3.5 | 0.00 | 0.00 | 0.00 | 69 | 1013.6 |
| 20260506032039 | 62 | 176 | 2.6 | 4.3 | 0.00 | 0.00 | 0.00 | 68 | 1013.4 |
| 20260506031539 | 63 | 180 | 1.7 | 5.2 | 0.00 | 0.00 | 0.00 | 68 | 1013.4 |
| 20260506031038 | 63 | 199 | 0.0 | 2.6 | 0.00 | 0.00 | 0.00 | 68 | 1013.3 |
| 20260506030538 | 63 | 155 | 0.9 | 4.3 | 0.00 | 0.00 | 0.00 | 67 | 1013.4 |
| 20260506030039 | 64 | 99 | 1.7 | 5.2 | 0.00 | 0.00 | 0.00 | 67 | 1013.3 |
| 20260506025539 | 64 | 180 | 2.6 | 5.2 | 0.00 | 0.00 | 0.00 | 66 | 1013.3 |
| 20260506025037 | 64 | 174 | 2.6 | 4.3 | 0.00 | 0.00 | 0.00 | 66 | 1013.3 |
| 20260506024537 | 65 | 137 | 0.0 | 5.2 | 0.00 | 0.00 | 0.00 | 65 | 1013.2 |
| 20260506024037 | 65 | 179 | 2.6 | 5.2 | 0.00 | 0.00 | 0.00 | 65 | 1013.2 |
| 20260506023537 | 66 | 167 | 0.9 | 6.1 | 0.00 | 0.00 | 0.00 | 63 | 1013.2 |
| 20260506023037 | 66 | 216 | 3.5 | 6.1 | 0.00 | 0.00 | 0.00 | 63 | 1013.2 |
| 20260506022536 | 66 | 235 | 2.6 | 6.1 | 0.00 | 0.00 | 0.00 | 63 | 1013.3 |
| 20260506022036 | 67 | 184 | 3.5 | 6.1 | 0.00 | 0.00 | 0.00 | 62 | 1013.2 |
| 20260506021535 | 67 | 164 | 0.9 | 6.1 | 0.00 | 0.00 | 0.00 | 63 | 1013.2 |
| 20260506021035 | 67 | 174 | 2.6 | 6.1 | 0.00 | 0.00 | 0.00 | 62 | 1013.2 |
| 20260506020534 | 67 | 164 | 2.6 | 5.2 | 0.00 | 0.00 | 0.00 | 63 | 1013.2 |
| 20260506020040 | 67 | 188 | 2.6 | 7.8 | 0.00 | 0.00 | 0.00 | 63 | 1013.2 |
| 20260506015534 | 67 | 188 | 4.3 | 7.8 | 0.00 | 0.00 | 0.00 | 62 | 1013.2 |
| 20260506015036 | 67 | 210 | 2.6 | 6.1 | 0.00 | 0.00 | 0.00 | 62 | 1013.3 |
| 20260506014534 | 67 | 176 | 3.5 | 7.0 | 0.00 | 0.00 | 0.00 | 62 | 1013.2 |
| 20260506014035 | 67 | 199 | 3.5 | 7.8 | 0.00 | 0.00 | 0.00 | 61 | 1013.1 |
| 20260506013534 | 68 | 206 | 3.5 | 8.7 | 0.00 | 0.00 | 0.00 | 62 | 1013.1 |
| 20260506013048 | 68 | 199 | 5.2 | 8.7 | 0.00 | 0.00 | 0.00 | 61 | 1013.2 |
| 20260506012536 | 68 | 211 | 4.3 | 8.7 | 0.00 | 0.00 | 0.00 | 61 | 1013.2 |
| 20260506012034 | 68 | 196 | 4.3 | 7.0 | 0.00 | 0.00 | 0.00 | 61 | 1013.2 |
| 20260506011540 | 68 | 210 | 1.7 | 7.8 | 0.00 | 0.00 | 0.00 | 61 | 1013.2 |
| 20260506011032 | 68 | 231 | 2.6 | 7.8 | 0.00 | 0.00 | 0.00 | 61 | 1013.3 |
| 20260506010533 | 68 | 152 | 4.3 | 8.7 | 0.00 | 0.00 | 0.00 | 60 | 1013.4 |
| 20260506010034 | 68 | 222 | 4.3 | 8.7 | 0.00 | 0.00 | 0.00 | 60 | 1013.3 |
| 20260506005532 | 68 | 214 | 2.6 | 8.7 | 0.00 | 0.00 | 0.00 | 60 | 1013.3 |
| 20260506005031 | 69 | 212 | 3.5 | 8.7 | 0.00 | 0.00 | 0.00 | 59 | 1013.4 |
| 20260506004532 | 69 | 181 | 3.5 | 8.7 | 0.00 | 0.00 | 0.00 | 60 | 1013.3 |
| 20260506004031 | 69 | 171 | 3.5 | 7.8 | 0.00 | 0.00 | 0.00 | 60 | 1013.3 |
| 20260506003531 | 69 | 218 | 2.6 | 7.8 | 0.00 | 0.00 | 0.00 | 59 | 1013.3 |
| 20260506003031 | 69 | 243 | 3.5 | 7.8 | 0.00 | 0.00 | 0.00 | 59 | 1013.2 |
| 20260506002531 | 69 | 229 | 3.5 | 8.7 | 0.00 | 0.00 | 0.00 | 59 | 1013.2 |
| 20260506002029 | 69 | 168 | 4.3 | 8.7 | 0.00 | 0.00 | 0.00 | 59 | 1013.1 |
| 20260506001529 | 70 | 193 | 1.7 | 8.7 | 0.00 | 0.00 | 0.00 | 59 | 1013.2 |
| 20260506001029 | 70 | 204 | 4.3 | 8.7 | 0.00 | 0.00 | 0.00 | 59 | 1013.3 |
| 20260506000528 | 70 | 210 | 3.5 | 8.7 | 0.00 | 0.00 | 0.00 | 59 | 1013.3 |
| 20260506000029 | 70 | 203 | 3.5 | 7.8 | 0.00 | 0.00 | 0.00 | 58 | 1013.3 |
| 20260505235528 | 70 | 232 | 2.6 | 7.8 | 0.00 | 0.00 | 0.00 | 58 | 1013.3 |
| 20260505235028 | 70 | 155 | 4.3 | 10.4 | 0.00 | 0.00 | 0.00 | 57 | 1013.3 |
| 20260505234528 | 71 | 181 | 7.0 | 10.4 | 0.00 | 0.00 | 0.00 | 57 | 1013.4 |
| 20260505234028 | 70 | 237 | 2.6 | 7.8 | 0.00 | 0.00 | 0.00 | 57 | 1013.4 |
| 20260505233529 | 70 | 216 | 4.3 | 7.8 | 0.00 | 0.00 | 0.00 | 57 | 1013.4 |
| 20260505233028 | 70 | 174 | 3.5 | 9.6 | 0.00 | 0.00 | 0.00 | 57 | 1013.5 |
| 20260505232526 | 70 | 191 | 6.1 | 9.6 | 0.00 | 0.00 | 0.00 | 56 | 1013.5 |
| 20260505232026 | 71 | 210 | 5.2 | 7.8 | 0.00 | 0.00 | 0.00 | 57 | 1013.6 |
| 20260505231527 | 70 | 209 | 0.9 | 7.8 | 0.00 | 0.00 | 0.00 | 57 | 1013.6 |
| 20260505231125 | 71 | 212 | 3.5 | 8.7 | 0.00 | 0.00 | 0.00 | 57 | 1013.7 |
| 20260505230525 | 71 | 168 | 5.2 | 8.7 | 0.00 | 0.00 | 0.00 | 56 | 1013.7 |
| 20260505230024 | 71 | 234 | 3.5 | 7.8 | 0.00 | 0.00 | 0.00 | 57 | 1013.8 |
| 20260505225524 | 71 | 248 | 4.3 | 7.8 | 0.00 | 0.00 | 0.00 | 56 | 1013.9 |
| 20260505225027 | 71 | 170 | 2.6 | 7.0 | 0.00 | 0.00 | 0.00 | 55 | 1013.9 |
| 20260505224524 | 71 | 207 | 3.5 | 7.0 | 0.00 | 0.00 | 0.00 | 56 | 1014.0 |
| 20260505224023 | 71 | 185 | 3.5 | 7.0 | 0.00 | 0.00 | 0.00 | 57 | 1014.0 |
| 20260505223527 | 70 | 173 | 1.7 | 7.8 | 0.00 | 0.00 | 0.00 | 56 | 1014.0 |
| 20260505223022 | 70 | 216 | 5.2 | 7.8 | 0.00 | 0.00 | 0.00 | 56 | 1014.0 |
| 20260505222525 | 70 | 238 | 2.6 | 8.7 | 0.00 | 0.00 | 0.00 | 56 | 1014.0 |
| 20260505222022 | 71 | 224 | 3.5 | 9.6 | 0.00 | 0.00 | 0.00 | 56 | 1014.0 |
| 20260505221522 | 71 | 197 | 5.2 | 9.6 | 0.00 | 0.00 | 0.00 | 56 | 1014.1 |
| 20260505221021 | 71 | 225 | 2.6 | 6.1 | 0.00 | 0.00 | 0.00 | 57 | 1014.1 |
| 20260505220519 | 70 | 193 | 2.6 | 7.0 | 0.00 | 0.00 | 0.00 | 57 | 1014.1 |
| 20260505220030 | 70 | 170 | 2.6 | 7.8 | 0.00 | 0.00 | 0.00 | 58 | 1014.1 |
| 20260505215519 | 70 | 195 | 3.5 | 9.6 | 0.00 | 0.00 | 0.00 | 57 | 1014.2 |
| 20260505215018 | 70 | 115 | 3.5 | 9.6 | 0.00 | 0.00 | 0.00 | 57 | 1014.2 |
| 20260505214522 | 70 | 136 | 3.5 | 7.0 | 0.00 | 0.00 | 0.00 | 57 | 1014.2 |
| 20260505214018 | 70 | 207 | 3.5 | 7.8 | 0.00 | 0.00 | 0.00 | 59 | 1014.3 |
| 20260505213523 | 69 | 198 | 4.3 | 7.8 | 0.00 | 0.00 | 0.00 | 58 | 1014.3 |
| 20260505213017 | 70 | 232 | 4.3 | 7.0 | 0.00 | 0.00 | 0.00 | 59 | 1014.3 |
| 20260505212517 | 70 | 270 | 2.6 | 7.0 | 0.00 | 0.00 | 0.00 | 58 | 1014.3 |
| 20260505212016 | 70 | 269 | 0.9 | 7.0 | 0.00 | 0.00 | 0.00 | 59 | 1014.3 |
| 20260505211516 | 69 | 180 | 2.6 | 8.7 | 0.00 | 0.00 | 0.00 | 58 | 1014.4 |
| 20260505211019 | 69 | 180 | 5.2 | 8.7 | 0.00 | 0.00 | 0.00 | 59 | 1014.4 |
| 20260505210514 | 69 | 222 | 3.5 | 7.0 | 0.00 | 0.00 | 0.00 | 59 | 1014.4 |
| 20260505210014 | 69 | 217 | 2.6 | 7.0 | 0.00 | 0.00 | 0.00 | 61 | 1014.4 |
| 20260505205514 | 69 | 166 | 1.7 | 8.7 | 0.00 | 0.00 | 0.00 | 59 | 1014.5 |
| 20260505205014 | 69 | 207 | 5.2 | 8.7 | 0.00 | 0.00 | 0.00 | 59 | 1014.6 |
| 20260505204514 | 69 | 240 | 3.5 | 8.7 | 0.00 | 0.00 | 0.00 | 60 | 1014.6 |
| 20260505204014 | 69 | 180 | 5.2 | 8.7 | 0.00 | 0.00 | 0.00 | 59 | 1014.6 |
| 20260505203513 | 69 | 252 | 3.5 | 7.0 | 0.00 | 0.00 | 0.00 | 59 | 1014.6 |
| 20260505203013 | 69 | 215 | 3.5 | 7.0 | 0.00 | 0.00 | 0.00 | 60 | 1014.6 |
| 20260505202512 | 69 | 214 | 2.6 | 7.8 | 0.00 | 0.00 | 0.00 | 60 | 1014.6 |
| 20260505202011 | 68 | 221 | 2.6 | 9.6 | 0.00 | 0.00 | 0.00 | 60 | 1014.7 |
| 20260505201510 | 68 | 201 | 4.3 | 9.6 | 0.00 | 0.00 | 0.00 | 62 | 1014.7 |
| 20260505201009 | 68 | 209 | 4.3 | 8.7 | 0.00 | 0.00 | 0.00 | 62 | 1014.7 |
| 20260505200512 | 68 | 187 | 5.2 | 8.7 | 0.00 | 0.00 | 0.00 | 62 | 1014.7 |
| 20260505200014 | 67 | 228 | 2.6 | 8.7 | 0.00 | 0.00 | 0.00 | 65 | 1014.7 |
| 20260505195506 | 67 | 203 | 1.7 | 7.0 | 0.00 | 0.00 | 0.00 | 65 | 1014.7 |
| 20260505195005 | 67 | 210 | 3.5 | 7.8 | 0.00 | 0.00 | 0.00 | 64 | 1014.7 |
| 20260505194503 | 67 | 186 | 3.5 | 7.0 | 0.00 | 0.00 | 0.00 | 66 | 1014.7 |
| 20260505194004 | 66 | 179 | 4.3 | 7.8 | 0.00 | 0.00 | 0.00 | 66 | 1014.7 |
| 20260505193501 | 66 | 165 | 3.5 | 8.7 | 0.00 | 0.00 | 0.00 | 66 | 1014.8 |
| 20260505193106 | 66 | 202 | 1.7 | 8.7 | 0.00 | 0.00 | 0.00 | 66 | 1014.7 |
| 20260505192600 | 66 | 165 | 2.6 | 8.7 | 0.00 | 0.00 | 0.00 | 67 | 1014.7 |
| 20260505192057 | 65 | 122 | 5.2 | 8.7 | 0.00 | 0.00 | 0.00 | 67 | 1014.6 |
| 20260505191608 | 65 | 220 | 2.6 | 6.1 | 0.00 | 0.00 | 0.00 | 68 | 1014.7 |
| 20260505191056 | 65 | 222 | 2.6 | 7.8 | 0.00 | 0.00 | 0.00 | 67 | 1014.7 |
| 20260505190556 | 65 | 217 | 3.5 | 8.7 | 0.00 | 0.00 | 0.00 | 68 | 1014.8 |
| 20260505190055 | 65 | 164 | 4.3 | 8.7 | 0.00 | 0.00 | 0.00 | 68 | 1014.8 |
| 20260505185554 | 65 | 182 | 3.5 | 7.8 | 0.00 | 0.00 | 0.00 | 68 | 1014.8 |
| 20260505185053 | 65 | 225 | 3.5 | 7.8 | 0.00 | 0.00 | 0.00 | 68 | 1014.9 |
| 20260505184552 | 65 | 170 | 4.3 | 7.8 | 0.00 | 0.00 | 0.00 | 69 | 1014.8 |
| 20260505184051 | 64 | 92 | 3.5 | 7.8 | 0.00 | 0.00 | 0.00 | 70 | 1014.8 |
| 20260505183550 | 64 | 196 | 4.3 | 9.6 | 0.00 | 0.00 | 0.00 | 70 | 1014.8 |
| 20260505183050 | 64 | 183 | 3.5 | 9.6 | 0.00 | 0.00 | 0.00 | 70 | 1014.7 |
| 20260505182548 | 63 | 168 | 5.2 | 9.6 | 0.00 | 0.00 | 0.00 | 71 | 1014.7 |
| 20260505182047 | 63 | 217 | 3.5 | 8.7 | 0.00 | 0.00 | 0.00 | 71 | 1014.7 |
| 20260505181554 | 63 | 217 | 3.5 | 8.7 | 0.00 | 0.00 | 0.00 | 72 | 1014.7 |
| 20260505181043 | 63 | 228 | 2.6 | 7.8 | 0.00 | 0.00 | 0.00 | 73 | 1014.7 |
| 20260505180543 | 63 | 207 | 3.5 | 9.6 | 0.00 | 0.00 | 0.00 | 73 | 1014.7 |
| 20260505180043 | 62 | 111 | 3.5 | 9.6 | 0.00 | 0.00 | 0.00 | 73 | 1014.6 |
| 20260505175542 | 62 | 293 | 2.6 | 8.7 | 0.00 | 0.00 | 0.00 | 74 | 1014.7 |
| 20260505175041 | 62 | 220 | 2.6 | 8.7 | 0.00 | 0.00 | 0.00 | 74 | 1014.7 |
| 20260505174541 | 62 | 193 | 3.5 | 7.0 | 0.00 | 0.00 | 0.00 | 74 | 1014.6 |
| 20260505174040 | 62 | 245 | 2.6 | 7.8 | 0.00 | 0.00 | 0.00 | 75 | 1014.6 |
| 20260505173538 | 61 | 199 | 1.7 | 7.0 | 0.00 | 0.00 | 0.00 | 74 | 1014.6 |
| 20260505173037 | 61 | 184 | 3.5 | 7.8 | 0.00 | 0.00 | 0.00 | 75 | 1014.6 |
| 20260505172536 | 61 | 227 | 3.5 | 7.8 | 0.00 | 0.00 | 0.00 | 74 | 1014.6 |
| 20260505172038 | 61 | 220 | 4.3 | 7.8 | 0.00 | 0.00 | 0.00 | 75 | 1014.6 |
| 20260505171533 | 61 | 226 | 4.3 | 7.8 | 0.00 | 0.00 | 0.00 | 75 | 1014.6 |
| 20260505171031 | 61 | 214 | 4.3 | 7.0 | 0.00 | 0.00 | 0.00 | 74 | 1014.6 |
| 20260505170531 | 61 | 227 | 2.6 | 7.0 | 0.00 | 0.00 | 0.00 | 74 | 1014.6 |
| 20260505170031 | 61 | 197 | 3.5 | 8.7 | 0.00 | 0.00 | 0.00 | 73 | 1014.6 |
| 20260505165527 | 61 | 210 | 4.3 | 8.7 | 0.00 | 0.00 | 0.00 | 73 | 1014.6 |
| 20260505165029 | 61 | 220 | 1.7 | 7.8 | 0.00 | 0.00 | 0.00 | 73 | 1014.6 |
| 20260505164526 | 61 | 201 | 3.5 | 7.8 | 0.00 | 0.00 | 0.00 | 73 | 1014.5 |
| 20260505164024 | 61 | 192 | 4.3 | 7.0 | 0.00 | 0.00 | 0.00 | 73 | 1014.5 |
| 20260505163523 | 61 | 195 | 2.6 | 6.1 | 0.00 | 0.00 | 0.00 | 73 | 1014.5 |
| 20260505163021 | 61 | 201 | 1.7 | 7.0 | 0.00 | 0.00 | 0.00 | 73 | 1014.5 |
| 20260505162528 | 61 | 141 | 4.3 | 7.8 | 0.00 | 0.00 | 0.00 | 72 | 1014.5 |
| 20260505162018 | 61 | 197 | 5.2 | 7.8 | 0.00 | 0.00 | 0.00 | 72 | 1014.4 |
| 20260505161534 | 61 | 184 | 3.5 | 7.0 | 0.00 | 0.00 | 0.00 | 73 | 1014.4 |
| 20260505161016 | 61 | 197 | 3.5 | 7.0 | 0.00 | 0.00 | 0.00 | 73 | 1014.4 |
| 20260505160518 | 61 | 212 | 3.5 | 6.1 | 0.00 | 0.00 | 0.00 | 73 | 1014.4 |
| 20260505153006 | 60 | 179 | 4.3 | 8.7 | 0.00 | 0.00 | 0.00 | 75 | 1014.2 |
| 20260505152503 | 60 | 222 | 2.6 | 6.1 | 0.00 | 0.00 | 0.00 | 75 | 1014.2 |
| 20260505152001 | 60 | 139 | 3.5 | 7.8 | 0.00 | 0.00 | 0.00 | 76 | 1014.1 |
| 20260505151559 | 59 | 210 | 1.7 | 7.8 | 0.00 | 0.00 | 0.00 | 76 | 1014.0 |
| 20260505151057 | 59 | 174 | 3.5 | 7.0 | 0.00 | 0.00 | 0.00 | 77 | 1014.0 |
| 20260505150557 | 59 | 189 | 2.6 | 6.1 | 0.00 | 0.00 | 0.00 | 77 | 1014.0 |
| 20260505150105 | 58 | 214 | 3.5 | 7.0 | 0.00 | 0.00 | 0.00 | 77 | 1013.9 |
| 20260505140545 | 56 | 207 | 0.0 | 2.6 | 0.00 | 0.00 | 0.00 | 77 | 1013.4 |
| 20260505130115 | 55 | 57 | 0.9 | 3.5 | 0.00 | 0.00 | 0.00 | 76 | 1012.6 |
| 20260505124601 | 55 | 303 | 1.7 | 3.5 | 0.00 | 0.00 | 0.00 | 76 | 1012.5 |
| 20260505124058 | 55 | 114 | 0.0 | 2.6 | 0.00 | 0.00 | 0.00 | 76 | 1012.5 |
| 20260505123557 | 55 | 111 | 0.9 | 2.6 | 0.00 | 0.00 | 0.00 | 76 | 1012.4 |
| 20260505123102 | 55 | 293 | 0.0 | 2.6 | 0.00 | 0.00 | 0.00 | 76 | 1012.3 |
| 20260505122555 | 55 | 281 | 0.0 | 2.6 | 0.00 | 0.00 | 0.00 | 76 | 1012.2 |
| 20260505122054 | 55 | 60 | 0.0 | 4.3 | 0.00 | 0.00 | 0.00 | 76 | 1012.1 |
| 20260505121556 | 55 | 156 | 0.0 | 4.3 | 0.00 | 0.00 | 0.00 | 76 | 1012.1 |
| 20260505121053 | 55 | 47 | 1.7 | 4.3 | 0.00 | 0.00 | 0.00 | 76 | 1012.0 |
| 20260505120546 | 55 | 51 | 0.9 | 2.6 | 0.00 | 0.00 | 0.00 | 75 | 1012.0 |
| 20260505120049 | 55 | 14 | 0.0 | 3.5 | 0.00 | 0.00 | 0.00 | 75 | 1012.1 |
| 20260505115545 | 55 | 295 | 1.7 | 3.5 | 0.00 | 0.00 | 0.00 | 75 | 1012.0 |
| 20260505115044 | 56 | 354 | 0.9 | 2.6 | 0.00 | 0.00 | 0.00 | 74 | 1011.9 |
| 20260505114543 | 56 | 334 | 0.0 | 1.7 | 0.00 | 0.00 | 0.00 | 74 | 1011.8 |
| 20260505114042 | 56 | 334 | 0.0 | 1.7 | 0.00 | 0.00 | 0.00 | 74 | 1011.9 |
| 20260505113541 | 56 | 334 | 0.0 | 1.7 | 0.00 | 0.00 | 0.00 | 74 | 1011.8 |
| 20260505113042 | 56 | 334 | 0.0 | 1.7 | 0.00 | 0.00 | 0.00 | 73 | 1011.8 |
| 20260505112540 | 56 | 334 | 0.0 | 1.7 | 0.00 | 0.00 | 0.00 | 73 | 1011.7 |
| 20260505112039 | 57 | 334 | 0.0 | 0.9 | 0.00 | 0.00 | 0.00 | 73 | 1011.7 |
| 20260505111539 | 57 | 334 | 0.0 | 2.6 | 0.00 | 0.00 | 0.00 | 73 | 1011.7 |
| 20260505111037 | 57 | 334 | 1.7 | 2.6 | 0.00 | 0.00 | 0.00 | 73 | 1011.6 |
| 20260505110535 | 57 | 288 | 0.9 | 2.6 | 0.00 | 0.00 | 0.00 | 74 | 1011.5 |
| 20260505102012 | 58 | 10 | 0.0 | 1.7 | 0.00 | 0.00 | 0.00 | 68 | 1011.0 |
| 20260505101510 | 58 | 10 | 0.9 | 1.7 | 0.00 | 0.00 | 0.00 | 68 | 1011.0 |
| 20260505101009 | 58 | 10 | 0.0 | 1.7 | 0.00 | 0.00 | 0.00 | 68 | 1011.0 |
| 20260505100508 | 58 | 10 | 0.0 | 1.7 | 0.00 | 0.00 | 0.00 | 68 | 1010.9 |
| 20260505100014 | 58 | 10 | 0.9 | 1.7 | 0.00 | 0.00 | 0.00 | 68 | 1010.8 |
| 20260505095508 | 59 | 10 | 0.0 | 1.7 | 0.00 | 0.00 | 0.00 | 68 | 1010.7 |
| 20260505095004 | 59 | 10 | 0.9 | 1.7 | 0.00 | 0.00 | 0.00 | 68 | 1010.6 |
| 20260505094503 | 59 | 10 | 0.9 | 1.7 | 0.00 | 0.00 | 0.00 | 67 | 1010.4 |
| 20260505094004 | 59 | 317 | 0.0 | 1.7 | 0.00 | 0.00 | 0.00 | 66 | 1010.4 |
| 20260505093501 | 59 | 10 | 0.0 | 1.7 | 0.00 | 0.00 | 0.00 | 66 | 1010.4 |
| 20260505093002 | 60 | 43 | 0.0 | 1.7 | 0.00 | 0.00 | 0.00 | 66 | 1010.4 |
| 20260505092559 | 60 | 43 | 0.0 | 2.6 | 0.00 | 0.00 | 0.00 | 65 | 1010.3 |
| 20260505092058 | 60 | 43 | 0.9 | 2.6 | 0.00 | 0.00 | 0.00 | 65 | 1010.3 |
| 20260505091606 | 60 | 43 | 0.9 | 2.6 | 0.00 | 0.00 | 0.00 | 64 | 1010.2 |
| 20260505091101 | 60 | 16 | 0.0 | 2.6 | 0.00 | 0.00 | 0.00 | 64 | 1010.2 |
| 20260505090556 | 60 | 16 | 0.9 | 2.6 | 0.00 | 0.00 | 0.00 | 64 | 1010.1 |
| 20260505090104 | 60 | 42 | 0.9 | 2.6 | 0.00 | 0.00 | 0.00 | 64 | 1010.1 |
| 20260505085554 | 60 | 41 | 0.9 | 2.6 | 0.00 | 0.00 | 0.00 | 63 | 1010.1 |
| 20260505085054 | 61 | 40 | 0.9 | 2.6 | 0.00 | 0.00 | 0.00 | 62 | 1010.1 |
| 20260505084556 | 61 | 19 | 0.9 | 2.6 | 0.00 | 0.00 | 0.00 | 61 | 1010.0 |
| 20260505084051 | 61 | 29 | 0.9 | 3.5 | 0.00 | 0.00 | 0.00 | 61 | 1009.9 |
| 20260505083553 | 61 | 29 | 0.9 | 3.5 | 0.00 | 0.00 | 0.00 | 60 | 1009.9 |
| 20260505083059 | 61 | 28 | 2.6 | 3.5 | 0.00 | 0.00 | 0.00 | 60 | 1009.9 |
| 20260505082550 | 61 | 5 | 2.6 | 3.5 | 0.00 | 0.00 | 0.00 | 60 | 1009.9 |
| 20260505082049 | 61 | 27 | 0.9 | 2.6 | 0.00 | 0.00 | 0.00 | 59 | 1009.9 |
| 20260505081557 | 62 | 51 | 0.9 | 2.6 | 0.00 | 0.00 | 0.00 | 59 | 1009.9 |
| 20260505081047 | 62 | 46 | 0.9 | 3.5 | 0.00 | 0.00 | 0.00 | 58 | 1009.9 |
| 20260505080550 | 62 | 36 | 1.7 | 3.5 | 0.00 | 0.00 | 0.00 | 58 | 1009.9 |
| 20260505080050 | 62 | 5 | 1.7 | 3.5 | 0.00 | 0.00 | 0.00 | 57 | 1009.8 |
| 20260505075545 | 62 | 353 | 1.7 | 3.5 | 0.00 | 0.00 | 0.00 | 57 | 1009.8 |
| 20260505075046 | 62 | 355 | 2.6 | 3.5 | 0.00 | 0.00 | 0.00 | 57 | 1009.8 |
| 20260505074544 | 62 | 16 | 1.7 | 2.6 | 0.00 | 0.00 | 0.00 | 57 | 1009.8 |
| 20260505074046 | 62 | 24 | 0.9 | 2.6 | 0.00 | 0.00 | 0.00 | 56 | 1009.7 |
| 20260505073542 | 62 | 36 | 1.7 | 4.3 | 0.00 | 0.00 | 0.00 | 57 | 1009.5 |
| 20260505073044 | 62 | 17 | 2.6 | 4.3 | 0.00 | 0.00 | 0.00 | 56 | 1009.4 |
| 20260505072540 | 62 | 360 | 1.7 | 3.5 | 0.00 | 0.00 | 0.00 | 56 | 1009.4 |
| 20260505072039 | 63 | 10 | 1.7 | 3.5 | 0.00 | 0.00 | 0.00 | 56 | 1009.3 |
| 20260505071546 | 63 | 34 | 1.7 | 3.5 | 0.00 | 0.00 | 0.00 | 55 | 1009.3 |
| 20260505071037 | 63 | 47 | 2.6 | 3.5 | 0.00 | 0.00 | 0.00 | 55 | 1009.2 |
| 20260505070537 | 63 | 48 | 1.7 | 3.5 | 0.00 | 0.00 | 0.00 | 55 | 1009.1 |
| 20260505070036 | 63 | 58 | 0.0 | 4.3 | 0.00 | 0.00 | 0.00 | 54 | 1009.2 |
| 20260505065536 | 63 | 62 | 2.6 | 4.3 | 0.00 | 0.00 | 0.00 | 54 | 1009.1 |
| 20260505065034 | 64 | 47 | 0.9 | 2.6 | 0.00 | 0.00 | 0.00 | 54 | 1009.0 |
| 20260505064537 | 64 | 39 | 0.9 | 2.6 | 0.00 | 0.00 | 0.00 | 54 | 1009.0 |
| 20260505064035 | 64 | 37 | 0.9 | 2.6 | 0.00 | 0.00 | 0.00 | 54 | 1009.0 |
| 20260505063534 | 64 | 40 | 0.9 | 2.6 | 0.00 | 0.00 | 0.00 | 53 | 1008.9 |
| 20260505063034 | 65 | 336 | 0.9 | 3.5 | 0.00 | 0.00 | 0.00 | 52 | 1008.9 |
| 20260505062536 | 65 | 49 | 1.7 | 3.5 | 0.00 | 0.00 | 0.00 | 53 | 1008.8 |
| 20260505062032 | 65 | 60 | 1.7 | 3.5 | 0.00 | 0.00 | 0.00 | 52 | 1008.8 |
| 20260505061534 | 65 | 62 | 1.7 | 3.5 | 0.00 | 0.00 | 0.00 | 51 | 1008.7 |
| 20260505061032 | 65 | 43 | 1.7 | 3.5 | 0.00 | 0.00 | 0.00 | 51 | 1008.7 |
| 20260505060533 | 65 | 49 | 1.7 | 3.5 | 0.00 | 0.00 | 0.00 | 51 | 1008.7 |
| 20260505060037 | 66 | 23 | 1.7 | 3.5 | 0.00 | 0.00 | 0.00 | 51 | 1008.7 |
| 20260505055532 | 66 | 10 | 1.7 | 4.3 | 0.00 | 0.00 | 0.00 | 50 | 1008.7 |
| 20260505055032 | 66 | 10 | 1.7 | 5.2 | 0.00 | 0.00 | 0.00 | 49 | 1008.7 |
| 20260505054533 | 66 | 37 | 3.5 | 5.2 | 0.00 | 0.00 | 0.00 | 49 | 1008.6 |
| 20260505054032 | 66 | 5 | 1.7 | 3.5 | 0.00 | 0.00 | 0.00 | 49 | 1008.6 |
| 20260505053532 | 66 | 10 | 1.7 | 3.5 | 0.00 | 0.00 | 0.00 | 49 | 1008.6 |
| 20260505053034 | 67 | 349 | 1.7 | 3.5 | 0.00 | 0.00 | 0.00 | 48 | 1008.6 |
| 20260505052530 | 67 | 40 | 2.6 | 3.5 | 0.00 | 0.00 | 0.00 | 47 | 1008.5 |
| 20260505052030 | 67 | 31 | 2.6 | 7.0 | 0.00 | 0.00 | 0.00 | 47 | 1008.5 |
| 20260505051530 | 67 | 44 | 2.6 | 7.0 | 0.00 | 0.00 | 0.00 | 46 | 1008.5 |
| 20260505051030 | 67 | 16 | 2.6 | 4.3 | 0.00 | 0.00 | 0.00 | 47 | 1008.5 |
| 20260505050530 | 67 | 360 | 1.7 | 4.3 | 0.00 | 0.00 | 0.00 | 47 | 1008.4 |
| 20260505041520 | 69 | 5 | 1.7 | 3.5 | 0.00 | 0.00 | 0.00 | 46 | 1008.1 |
| 20260505041020 | 69 | 10 | 1.7 | 3.5 | 0.00 | 0.00 | 0.00 | 45 | 1008.1 |
| 20260505040520 | 69 | 10 | 1.7 | 3.5 | 0.00 | 0.00 | 0.00 | 45 | 1008.0 |
| 20260505040022 | 70 | 360 | 1.7 | 3.5 | 0.00 | 0.00 | 0.00 | 46 | 1008.0 |
| 20260505035522 | 70 | 15 | 1.7 | 3.5 | 0.00 | 0.00 | 0.00 | 45 | 1007.9 |
| 20260505035019 | 71 | 360 | 1.7 | 2.6 | 0.00 | 0.00 | 0.00 | 44 | 1007.9 |
| 20260505034523 | 71 | 360 | 1.7 | 2.6 | 0.00 | 0.00 | 0.00 | 44 | 1007.9 |
| 20260505034019 | 72 | 17 | 0.9 | 3.5 | 0.00 | 0.00 | 0.00 | 45 | 1007.9 |
| 20260505033519 | 72 | 360 | 1.7 | 3.5 | 0.00 | 0.00 | 0.00 | 44 | 1007.8 |